Location: North Bay
(46.3091°N, 79.4608°W)
Time: 06:45:18
(UTC-05:00)

ISS - Visible Passes

Search period start: 05 March 2024 00:00
Search period end: 15 March 2024 01:00
Orbit: 414 x 422 km, 51.6° (Epoch: 05 March)

Date Brightness Start Highest point End Pass type
(mag) Time Alt. Az. Time Alt. Az. Time Alt. Az.
05 Mar -0.9 04:02:35 17° E 04:02:35 17° E 04:03:34 10° E visible
05 Mar -3.4 05:35:32 25° W 05:37:08 47° SW 05:40:24 10° SE visible
06 Mar -3.4 04:49:42 56° SE 04:49:42 56° SE 04:52:30 10° SE visible
07 Mar -0.8 04:03:59 13° ESE 04:03:59 13° ESE 04:04:26 10° ESE visible
07 Mar -2.2 05:36:57 19° WSW 05:37:31 20° SW 05:40:04 10° S visible
08 Mar -1.7 04:51:22 19° SSE 04:51:22 19° SSE 04:52:35 10° SSE visible
12 Mar -1.5 20:55:14 10° S 20:55:54 13° S 20:55:54 13° S visible
13 Mar -1.7 20:08:10 10° SSE 20:09:40 13° SE 20:10:30 12° ESE visible
13 Mar -1.3 21:42:35 10° SW 21:43:28 17° SW 21:43:28 17° SW visible
14 Mar -3.5 20:54:26 10° SW 20:57:39 47° SE 20:57:51 46° SE visible
